Location: Unspecified
(0.0000°N, 0.0000°E)
Time: 11:18:21
(UTC+00:00)

A-11 Canister half - Pass Details

Date: 01 August 2021
Orbit: 1526 x 1683 km, 47.3° (Epoch: 27 September)

Event Time Altitude Azimuth Distance (km) Brightness Sun altitude
Rises 18:36:54 0° 339° (NNW) 4,773 12.2 -7.3°
Reaches altitude 10° 18:40:31 10° 349° (N) 3,766 11.5 -8.1°
Maximum altitude 18:48:38 31° 49° (NE) 2,435 9.8 -10.1°
Enters shadow 18:55:25 14° 103° (ESE) 3,407 10.1 -11.7°
